| time (UTC) | temp F | wind direction | speed knots | gust knots | rain 1hr in | rain 24hr in | rain mn in | humidity % | barometer mb |
| 20260509204505 | 56 | 92 | 5.2 | 13.0 | 0.00 | 0.00 | 0.00 | 65 | 1017.1 |
| 20260509203004 | 56 | 99 | 6.1 | 13.9 | 0.00 | 0.00 | 0.00 | 64 | 1017.0 |
| 20260509201505 | 57 | 95 | 6.1 | 17.4 | 0.00 | 0.00 | 0.00 | 64 | 1017.1 |
| 20260509200004 | 57 | 91 | 8.7 | 13.0 | 0.00 | 0.00 | 0.00 | 64 | 1017.0 |
| 20260509194504 | 58 | 93 | 6.1 | 12.2 | 0.00 | 0.00 | 0.00 | 63 | 1017.0 |
| 20260509193002 | 59 | 100 | 5.2 | 11.3 | 0.00 | 0.00 | 0.00 | 63 | 1016.8 |
| 20260509191501 | 60 | 100 | 4.3 | 8.7 | 0.00 | 0.00 | 0.00 | 62 | 1016.7 |
| 20260509190001 | 61 | 100 | 7.0 | 14.8 | 0.00 | 0.00 | 0.00 | 60 | 1016.6 |
| 20260509184505 | 62 | 104 | 0.0 | 5.2 | 0.00 | 0.00 | 0.00 | 59 | 1016.3 |
| 20260509183101 | 62 | 104 | 1.7 | 6.1 | 0.00 | 0.00 | 0.00 | 58 | 1016.1 |
| 20260509181608 | 64 | 104 | 2.6 | 8.7 | 0.00 | 0.00 | 0.00 | 56 | 1016.0 |
| 20260509180105 | 66 | 103 | 0.0 | 0.0 | 0.00 | 0.00 | 0.00 | 59 | 1015.9 |
| 20260509174559 | 66 | 103 | 0.0 | 0.0 | 0.00 | 0.00 | 0.00 | 53 | 1015.7 |
| 20260509173102 | 67 | 103 | 0.0 | 7.0 | 0.00 | 0.00 | 0.00 | 52 | 1015.6 |
| 20260509171557 | 67 | 103 | 0.0 | 5.2 | 0.00 | 0.00 | 0.00 | 50 | 1015.6 |
| 20260509170104 | 67 | 102 | 0.9 | 8.7 | 0.00 | 0.00 | 0.00 | 50 | 1015.4 |
| 20260509164557 | 68 | 110 | 0.9 | 7.0 | 0.00 | 0.00 | 0.00 | 50 | 1015.5 |
| 20260509163104 | 68 | 113 | 2.6 | 9.6 | 0.00 | 0.00 | 0.00 | 50 | 1015.4 |
| 20260509161558 | 68 | 94 | 3.5 | 8.7 | 0.00 | 0.00 | 0.00 | 49 | 1015.6 |
| 20260509160053 | 68 | 101 | 0.9 | 9.6 | 0.00 | 0.00 | 0.00 | 50 | 1015.7 |
| 20260509154605 | 67 | 88 | 0.0 | 11.3 | 0.00 | 0.00 | 0.00 | 50 | 1015.7 |
| 20260509153051 | 67 | 98 | 0.9 | 6.1 | 0.00 | 0.00 | 0.00 | 52 | 1015.8 |
| 20260509151553 | 67 | 97 | 0.0 | 7.0 | 0.00 | 0.00 | 0.00 | 51 | 1015.8 |
| 20260509150106 | 67 | 96 | 0.0 | 5.2 | 0.00 | 0.00 | 0.00 | 50 | 1015.8 |
| 20260509144558 | 67 | 96 | 0.0 | 0.0 | 0.00 | 0.00 | 0.00 | 51 | 1016.0 |
| 20260509143054 | 67 | 96 | 1.7 | 8.7 | 0.00 | 0.00 | 0.00 | 51 | 1015.8 |
| 20260509141549 | 67 | 96 | 0.0 | 7.0 | 0.00 | 0.00 | 0.00 | 51 | 1016.0 |
| 20260509140050 | 67 | 74 | 6.1 | 9.6 | 0.00 | 0.00 | 0.00 | 51 | 1016.0 |
| 20260509134546 | 68 | 27 | 0.9 | 13.9 | 0.00 | 0.00 | 0.00 | 50 | 1016.1 |
| 20260509133050 | 67 | 63 | 0.0 | 0.0 | 0.00 | 0.00 | 0.00 | 51 | 1016.2 |
| 20260509131544 | 67 | 82 | 2.6 | 8.7 | 0.00 | 0.00 | 0.00 | 52 | 1016.3 |
| 20260509130049 | 67 | 56 | 1.7 | 12.2 | 0.00 | 0.00 | 0.00 | 52 | 1016.3 |
| 20260509124550 | 67 | 69 | 1.7 | 11.3 | 0.00 | 0.00 | 0.00 | 52 | 1016.3 |
| 20260509123043 | 68 | 112 | 4.3 | 12.2 | 0.00 | 0.00 | 0.00 | 51 | 1016.2 |
| 20260509121555 | 68 | 81 | 4.3 | 24.3 | 0.00 | 0.00 | 0.00 | 50 | 1016.3 |
| 20260509120042 | 68 | 59 | 8.7 | 20.0 | 0.00 | 0.00 | 0.00 | 50 | 1016.4 |
| 20260509114552 | 68 | 62 | 9.6 | 18.2 | 0.00 | 0.00 | 0.00 | 51 | 1016.4 |
| 20260509113036 | 67 | 53 | 0.0 | 11.3 | 0.00 | 0.00 | 0.00 | 51 | 1016.5 |
| 20260509111535 | 68 | 69 | 6.1 | 12.2 | 0.00 | 0.00 | 0.00 | 51 | 1016.5 |
| 20260509110032 | 67 | 53 | 0.0 | 10.4 | 0.00 | 0.00 | 0.00 | 53 | 1016.7 |
| 20260509104530 | 66 | 81 | 9.6 | 17.4 | 0.00 | 0.00 | 0.00 | 54 | 1016.9 |
| 20260509103028 | 66 | 90 | 3.5 | 10.4 | 0.00 | 0.00 | 0.00 | 54 | 1017.0 |
| 20260509101526 | 65 | 127 | 3.5 | 12.2 | 0.00 | 0.00 | 0.00 | 56 | 1017.1 |
| 20260509100024 | 65 | 88 | 0.0 | 11.3 | 0.00 | 0.00 | 0.00 | 55 | 1017.3 |
| 20260509094524 | 64 | 100 | 4.3 | 15.6 | 0.00 | 0.00 | 0.00 | 55 | 1017.3 |
| 20260509093017 | 63 | 66 | 0.9 | 13.0 | 0.00 | 0.00 | 0.00 | 57 | 1017.3 |
| 20260509091514 | 63 | 71 | 4.3 | 17.4 | 0.00 | 0.00 | 0.00 | 59 | 1017.4 |
| 20260509090031 | 62 | 51 | 9.6 | 15.6 | 0.00 | 0.00 | 0.00 | 61 | 1017.5 |
| 20260509084508 | 62 | 35 | 0.0 | 11.3 | 0.00 | 0.00 | 0.00 | 64 | 1017.6 |
| 20260509083009 | 62 | 44 | 7.0 | 14.8 | 0.00 | 0.00 | 0.00 | 64 | 1017.8 |
| 20260509081502 | 61 | 54 | 2.6 | 12.2 | 0.00 | 0.00 | 0.00 | 65 | 1017.7 |
| 20260509080111 | 60 | 61 | 6.1 | 14.8 | 0.00 | 0.00 | 0.00 | 66 | 1017.8 |
| 20260509074558 | 60 | 59 | 6.1 | 12.2 | 0.00 | 0.00 | 0.00 | 66 | 1017.7 |
| 20260509073106 | 59 | 40 | 4.3 | 13.9 | 0.00 | 0.00 | 0.00 | 67 | 1017.8 |
| 20260509071551 | 58 | 53 | 4.3 | 13.9 | 0.00 | 0.00 | 0.00 | 70 | 1017.8 |
| 20260509070050 | 57 | 333 | 0.0 | 0.0 | 0.00 | 0.00 | 0.00 | 76 | 1017.8 |
| 20260509064546 | 56 | 333 | 2.6 | 14.8 | 0.00 | 0.00 | 0.00 | 76 | 1017.7 |
| 20260509063050 | 55 | 3 | 0.0 | 10.4 | 0.00 | 0.00 | 0.00 | 77 | 1017.7 |
| 20260509061545 | 55 | 2 | 5.2 | 13.9 | 0.00 | 0.00 | 0.00 | 78 | 1017.7 |
| 20260509060042 | 54 | 3 | 0.9 | 8.7 | 0.00 | 0.00 | 0.00 | 80 | 1017.5 |
| 20260509054538 | 54 | 3 | 2.6 | 10.4 | 0.00 | 0.00 | 0.00 | 82 | 1017.3 |
| 20260509053043 | 53 | 6 | 2.6 | 11.3 | 0.00 | 0.00 | 0.00 | 83 | 1017.3 |
| 20260509051535 | 52 | 40 | 0.0 | 5.2 | 0.00 | 0.00 | 0.00 | 82 | 1017.2 |
| 20260509050047 | 52 | 41 | 0.9 | 6.1 | 0.00 | 0.00 | 0.00 | 82 | 1017.1 |
| 20260509044534 | 52 | 42 | 1.7 | 12.2 | 0.00 | 0.00 | 0.00 | 82 | 1017.0 |
| 20260509043036 | 52 | 47 | 4.3 | 12.2 | 0.00 | 0.00 | 0.00 | 83 | 1017.0 |
| 20260509041525 | 52 | 44 | 4.3 | 11.3 | 0.00 | 0.00 | 0.00 | 84 | 1016.8 |
| 20260509040021 | 51 | 42 | 0.0 | 0.0 | 0.00 | 0.00 | 0.00 | 84 | 1016.8 |
| 20260509034518 | 51 | 44 | 0.0 | 0.0 | 0.00 | 0.00 | 0.00 | 84 | 1016.7 |
| 20260509033020 | 51 | 44 | 0.9 | 6.1 | 0.00 | 0.00 | 0.00 | 83 | 1016.8 |
| 20260509031514 | 52 | 44 | 0.0 | 4.3 | 0.00 | 0.00 | 0.00 | 83 | 1016.8 |
| 20260509030019 | 52 | 44 | 0.9 | 6.1 | 0.00 | 0.00 | 0.00 | 82 | 1016.8 |
| 20260509024511 | 52 | 44 | 0.0 | 7.8 | 0.00 | 0.00 | 0.00 | 82 | 1016.7 |
| 20260509023010 | 52 | 45 | 1.7 | 10.4 | 0.00 | 0.00 | 0.00 | 82 | 1016.6 |
| 20260509021508 | 53 | 46 | 0.0 | 8.7 | 0.00 | 0.00 | 0.00 | 82 | 1016.7 |
| 20260509020006 | 53 | 48 | 0.9 | 8.7 | 0.00 | 0.00 | 0.00 | 82 | 1016.6 |
| 20260509014504 | 53 | 52 | 1.7 | 11.3 | 0.00 | 0.00 | 0.00 | 81 | 1016.6 |
| 20260509013002 | 53 | 57 | 2.6 | 8.7 | 0.00 | 0.00 | 0.00 | 81 | 1016.6 |
| 20260509011605 | 53 | 61 | 4.3 | 9.6 | 0.00 | 0.00 | 0.00 | 81 | 1016.5 |
| 20260509010059 | 54 | 65 | 2.6 | 8.7 | 0.00 | 0.00 | 0.00 | 80 | 1016.5 |
| 20260509004600 | 54 | 67 | 5.2 | 8.7 | 0.00 | 0.00 | 0.00 | 80 | 1016.5 |
| 20260509003053 | 54 | 67 | 0.0 | 9.6 | 0.00 | 0.00 | 0.00 | 79 | 1016.6 |
| 20260509001553 | 55 | 60 | 5.2 | 12.2 | 0.00 | 0.00 | 0.00 | 78 | 1016.7 |
| 20260509000047 | 55 | 59 | 0.0 | 10.4 | 0.00 | 0.00 | 0.00 | 77 | 1016.7 |
| 20260508234544 | 56 | 64 | 0.0 | 11.3 | 0.00 | 0.00 | 0.00 | 76 | 1016.7 |
| 20260508233041 | 56 | 65 | 0.0 | 10.4 | 0.00 | 0.00 | 0.00 | 75 | 1016.7 |
| 20260508231545 | 57 | 66 | 0.0 | 5.2 | 0.00 | 0.00 | 0.00 | 74 | 1016.6 |
| 20260508230037 | 57 | 66 | 0.0 | 6.1 | 0.00 | 0.00 | 0.00 | 73 | 1016.5 |
| 20260508224558 | 58 | 66 | 0.0 | 7.8 | 0.00 | 0.00 | 0.00 | 73 | 1016.6 |
| 20260508223034 | 58 | 69 | 0.0 | 0.0 | 0.00 | 0.00 | 0.00 | 72 | 1016.6 |
| 20260508221541 | 58 | 69 | 0.0 | 0.0 | 0.00 | 0.00 | 0.00 | 72 | 1016.5 |
| 20260508220034 | 58 | 69 | 0.0 | 6.1 | 0.00 | 0.00 | 0.00 | 72 | 1016.5 |
| 20260508214538 | 58 | 79 | 0.0 | 8.7 | 0.00 | 0.00 | 0.00 | 72 | 1016.3 |
| 20260508213034 | 58 | 85 | 0.0 | 7.8 | 0.00 | 0.00 | 0.00 | 71 | 1016.2 |
| 20260508211528 | 59 | 84 | 0.0 | 8.7 | 0.00 | 0.00 | 0.00 | 70 | 1016.2 |
| 20260508210027 | 59 | 90 | 1.7 | 10.4 | 0.00 | 0.00 | 0.00 | 68 | 1016.2 |